Starlink 1712

operational
NORAD ID: 46581 Int'l Des: 2020-070 Owner: SPXS Country: US Constellation: starlink
LEOCIRCULAR

Über Starlink 1712

Beschreibung wird geladen...

Live-Position

3D-Globus wird geladen...

Nächste Überflüge

Höhenverlauf

Altitude vs Time

uPlot chart will show altitude changes over time

Zweizeiliger Elementsatz

1 46581U 20070BB 25258.27252371 .00284584 00000-0 76254-2 0 9991
2 46581 53.0559 212.2686 0012707 41.4472 318.7491 15.36309082273517
Epoch: 15. Sept. 2025 • Age: 14 hours

Aktueller Status

Höhe 448.6 km
Geschwindigkeit 7.65 km/s
Subsatellitenpunkt 24.77°N, 76.29°W
Startdatum 6. Okt. 2020
Alter 4.9 years
Typ internet

Technische Details

Klassifizierung Payload
Masse 260.00 kg
Trockenmasse 248.00 kg
Gesamtmasse 260.00 kg
Länge 0.20 m
Durchmesser 2.80 m
Spannweite 9.00 m
Form Box + pan
Hersteller SPXS
Bus-Typ Starlink
Phasenstatus In Orbit
Besitzer/Staat SPXS/US

Große Konstellationen

Loading constellations...